Location: Arbon
(43.0005°N, 0.7472°E)
Time: 18:02:31
(UTC+00:00)

Tiros 1 despin weight - Visible Passes

Search period start: 04 December 2020 00:00
Search period end: 14 December 2020 00:00
Orbit: 593 x 642 km, 48.2° (Epoch: 03 December)

Date Brightness Start Highest point End Pass type
(mag) Time Alt. Az. Time Alt. Az. Time Alt. Az.
11 Dec ? 06:01:51 10° S 06:05:09 20° SE 06:08:30 10° E visible
12 Dec ? 06:17:07 10° SSW 06:21:17 36° SE 06:25:30 10° ENE visible
13 Dec ? 04:54:27 10° SSE 04:56:41 14° SE 04:58:55 10° ESE visible
13 Dec ? 06:33:03 10° SW 06:37:32 63° SSE 06:42:07 10° ENE visible
